Temp
66 66 66 66 65 65 65 65 66 66 66 67 67 67 66 65 64 59 60 71 70 79 78 72 70 69 67 63 64 62 49 47 51 53 57 64 61 66 68 65 66 66 64 67 72
66 66 66 65 65 65 65 65 65 66 66 66 66 66 66 65 56 58 72 78 79 79 70 67 64 66 59 59 59 54 46 52 61 58 58 63 61 62 62 60 60 63 64 66 67
65 65 65 65 65 65 65 65 65 66 66 66 66 65 65 62 58 66 79 78 79 78 73 71 69 64 56 57 56 53 49 58 62 65 65 63 62 64 59 57 63 62 64 65 64
65 65 64 64 64 64 64 64 65 66 66 66 65 65 64 58 55 71 79 79 79 74 72 68 64 57 53 53 59 51 59 60 63 66 65 63 65 62 62 63 67 67 67 65 64
64 64 64 64 64 64 64 64 64 65 65 65 65 65 59 55 60 74 78 78 74 72 69 66 60 57 52 54 56 53 57 62 63 63 62 64 61 62 62 66 66 67 66 64 63
64 64 63 63 63 63 63 63 64 64 64 64 65 64 56 51 72 73 73 71 72 70 67 67 63 63 57 56 54 57 59 60 62 62 61 60 59 60 63 65 64 65 64 63 63
63 63 63 63 62 62 63 63 63 63 63 64 64 62 56 60 71 69 72 69 71 71 66 68 68 62 59 55 60 59 54 56 57 59 59 60 54 55 65 63 61 61 61 62 62
63 63 62 62 62 62 62 63 63 63 64 64 64 58 53 70 68 70 71 69 72 71 70 71 70 65 60 60 57 52 49 44 55 56 59 61 46 58 61 59 60 59 57 59 61
62 62 62 61 61 62 62 63 64 65 65 65 57 54 54 72 66 70 71 69 70 69 68 77 67 60 58 49 44 44 39 42 50 58 56 55 48 59 60 58 58 58 56 56 56
62 61 61 61 61 61 63 63 64 64 64 66 66 54 61 63 68 69 69 72 67 66 64 62 56 51 46 45 36 40 39 44 44 53 53 50 50 56 58 57 58 57 55 53 54
61 61 60 60 61 62 59 56 51 52 53 52 55 55 61 68 71 66 70 68 65 60 51 55 48 45 47 49 49 46 43 43 48 56 51 50 52 54 58 55 54 54 53 52 52
61 60 60 60 60 61 59 51 51 50 41 56 55 56 63 64 58 65 70 60 58 51 52 48 46 53 54 53 50 47 43 43 49 55 50 50 50 55 55 56 56 59 52 50 50
60 60 60 60 59 54 51 52 57 54 41 50 57 57 58 61 56 60 65 60 55 50 50 48 51 58 55 51 48 46 43 43 46 52 51 47 45 48 53 53 53 52 52 53 52
60 59 59 59 53 49 51 56 55 54 36 45 53 58 61 60 53 68 68 63 55 53 52 51 58 55 51 49 50 42 51 51 50 44 38 46 35 43 49 49 47 43 47 49 50
59 59 58 58 46 47 54 55 56 50 29 54 56 67 61 57 61 61 69 62 55 54 54 49 52 52 50 52 53 49 54 50 48 43 38 39 37 41 43 45 45 44 46 48 49
58 58 58 53 49 51 54 55 52 39 30 50 58 54 52 56 58 61 61 65 64 56 53 54 60 57 55 58 57 56 51 46 42 40 32 41 40 39 41 46 43 45 47 48 49
57 57 56 57 46 54 55 49 38 30 51 49 50 54 51 51 55 56 53 53 50 45 44 51 53 57 60 52 54 52 45 29 31 28 30 40 36 43 47 51 51 49 48 48 49
56 56 54 56 54 53 49 42 30 41 42 52 49 51 48 52 51 54 51 47 54 50 45 42 39 52 57 55 50 48 46 31 26 24 28 40 32 44 51 51 52 54 51 49 49
54 46 45 51 54 51 42 30 34 39 47 43 45 41 42 46 45 46 47 47 51 53 45 41 40 55 57 60 58 46 39 49 35 32 28 34 43 52 47 46 48 48 49 49 49
43 42 43 52 52 45 32 32 34 45 44 44 35 40 35 38 40 39 40 46 46 50 49 47 41 51 55 57 53 51 52 40 35 28 27 34 36 44 45 44 45 46 47 48 49
40 35 46 49 48 38 27 28 37 45 44 38 36 35 36 36 37 37 40 45 48 48 48 41 42 43 51 49 46 46 43 43 42 35 30 29 37 48 50 49 46 47 49 49 49
38 29 45 48 32 35 28 35 44 41 43 39 39 38 36 37 34 35 37 43 48 46 40 42 36 34 45 51 55 54 50 49 39 33 33 32 37 51 51 51 50 48 50 49 51
32 32 43 43 21 22 33 36 39 37 37 38 37 40 40 34 30 36 39 46 46 45 42 43 35 29 34 43 47 44 46 48 43 39 33 33 39 53 51 49 49 47 48 49 49
31 25 31 34 32 28 29 31 31 40 39 40 38 40 35 32 36 32 37 44 45 45 50 47 37 34 30 33 37 35 38 42 42 39 41 40 43 50 50 49 47 47 48 49 49
31 24 33 19 24 27 30 32 29 29 39 40 36 35 33 28 31 32 37 39 43 45 43 40 32 36 37 38 37 35 37 39 37 41 42 45 45 52 54 52 48 48 48 48 48
26 29 33 31 26 24 27 27 28 31 34 32 33 36 36 31 33 29 31 35 35 36 36 37 29 34 32 39 39 33 37 38 39 40 43 48 47 53 56 52 47 47 48 48 49
36 34 33 30 25 26 28 29 31 35 36 38 36 34 32 36 41 41 36 35 36 37 33 33 30 26 19 35 37 30 37 37 41 45 45 43 52 54 53 53 52 50 50 50 50
MSLP
1019.16 1018.85 1018.50 1018.18 1017.83 1017.42 1017.01 1016.59 1016.13 1015.76 1015.42 1015.09 1014.71 1014.29 1014.00 1013.66 1013.29 1012.99 1012.31 1010.45 1010.25 1010.25 1010.58 1010.78 1011.09 1011.15 1011.35 1011.64 1011.99 1012.40 1013.11 1012.97 1011.89 1011.27 1010.37 1009.66 1009.36 1009.21 1009.18 1009.34 1009.43 1009.72 1010.08 1009.82 1009.81
1019.28 1018.95 1018.65 1018.39 1018.09 1017.69 1017.24 1016.75 1016.22 1015.68 1015.13 1014.68 1014.32 1014.10 1013.88 1013.59 1013.21 1012.06 1009.55 1009.69 1009.85 1010.04 1010.76 1010.97 1011.21 1011.33 1011.92 1012.07 1012.30 1012.65 1013.16 1012.18 1011.20 1010.56 1010.04 1009.59 1009.50 1009.43 1009.44 1009.67 1009.86 1009.97 1010.06 1009.99 1010.08
1019.64 1019.27 1018.93 1018.56 1018.15 1017.69 1017.25 1016.79 1016.24 1015.75 1015.31 1014.83 1014.38 1013.92 1013.55 1013.37 1012.87 1009.97 1008.70 1009.18 1009.65 1010.09 1010.46 1010.86 1011.21 1011.67 1012.08 1012.25 1012.45 1012.62 1012.39 1011.52 1010.75 1010.15 1009.93 1009.71 1009.59 1009.56 1009.65 1010.03 1009.88 1009.96 1010.27 1010.33 1010.41
1019.80 1019.39 1019.00 1018.60 1018.15 1017.64 1017.10 1016.63 1016.12 1015.53 1014.98 1014.50 1014.24 1014.00 1013.59 1013.28 1011.66 1008.80 1008.34 1008.95 1009.40 1010.03 1010.64 1011.11 1011.40 1011.87 1012.30 1012.40 1012.07 1012.41 1011.72 1011.27 1010.64 1010.11 1010.00 1009.85 1009.54 1009.68 1009.83 1009.77 1009.51 1009.69 1009.78 1010.27 1010.69
1019.90 1019.43 1018.95 1018.49 1018.00 1017.43 1016.89 1016.33 1015.78 1015.21 1014.73 1014.39 1014.09 1013.78 1013.38 1012.90 1010.64 1008.59 1008.42 1008.91 1009.72 1010.26 1010.62 1011.02 1011.54 1011.89 1012.17 1012.22 1012.26 1012.21 1011.73 1011.21 1010.57 1010.28 1010.21 1009.97 1009.88 1009.84 1009.66 1009.37 1009.58 1009.82 1010.16 1010.45 1010.69
1019.92 1019.49 1018.99 1018.48 1017.84 1017.16 1016.51 1015.85 1015.25 1014.81 1014.56 1014.19 1013.85 1013.85 1013.60 1012.17 1008.88 1008.66 1008.97 1009.33 1009.47 1010.23 1010.66 1010.85 1011.09 1011.40 1011.82 1012.07 1012.27 1011.91 1011.75 1011.25 1010.69 1010.29 1010.13 1010.09 1009.99 1010.10 1009.11 1009.11 1009.72 1010.08 1010.19 1010.42 1010.72
1019.99 1019.49 1018.97 1018.29 1017.55 1016.80 1016.04 1015.19 1014.61 1014.02 1013.71 1013.70 1013.63 1013.67 1013.20 1010.08 1008.68 1008.95 1009.19 1009.34 1009.45 1009.67 1010.29 1010.55 1010.72 1011.27 1011.59 1011.89 1011.92 1011.92 1012.06 1011.33 1010.51 1010.06 1010.03 1010.02 1010.22 1009.88 1008.77 1009.24 1009.67 1010.04 1010.16 1010.33 1010.52
1019.86 1019.37 1018.82 1018.09 1017.22 1016.23 1015.05 1014.24 1013.68 1013.17 1013.05 1013.05 1013.28 1013.58 1011.86 1009.05 1008.89 1008.92 1009.26 1009.44 1009.55 1009.75 1009.98 1009.98 1010.35 1010.94 1011.53 1011.88 1012.15 1012.52 1012.49 1012.20 1010.56 1010.15 1009.79 1009.89 1009.77 1008.87 1008.90 1009.42 1009.83 1010.03 1010.29 1010.42 1010.42
1019.95 1019.43 1018.74 1017.85 1016.82 1015.60 1014.52 1013.62 1013.23 1012.84 1012.69 1013.01 1013.60 1013.14 1010.87 1008.75 1008.85 1008.28 1008.86 1009.23 1009.51 1009.86 1009.99 1010.09 1010.45 1011.18 1011.73 1012.58 1013.29 1013.41 1013.19 1012.64 1011.59 1010.23 1010.16 1010.26 1009.87 1008.71 1008.70 1009.28 1009.54 1009.75 1010.20 1010.55 1010.89
1019.94 1019.39 1018.62 1017.81 1016.81 1015.66 1014.10 1012.90 1012.69 1012.95 1013.12 1013.33 1013.34 1013.52 1010.10 1008.59 1008.31 1008.17 1008.39 1009.05 1009.80 1009.99 1010.37 1010.58 1011.30 1011.88 1012.47 1013.15 1013.50 1013.43 1013.49 1012.76 1011.97 1010.80 1010.57 1010.53 1010.10 1009.22 1008.87 1009.17 1009.09 1009.68 1010.02 1010.68 1011.04
1019.83 1019.38 1018.65 1017.75 1017.06 1015.88 1014.26 1013.75 1014.29 1014.10 1014.22 1013.47 1013.16 1012.56 1010.16 1008.85 1008.23 1008.28 1008.24 1009.20 1009.81 1010.34 1010.84 1011.15 1011.95 1011.86 1012.15 1012.50 1012.90 1013.04 1013.16 1012.93 1011.97 1010.96 1011.08 1010.38 1009.81 1009.41 1008.80 1008.97 1009.32 1009.58 1010.05 1010.52 1011.06
1019.88 1019.36 1018.76 1017.82 1016.99 1016.44 1015.75 1016.83 1018.43 1018.73 1016.27 1013.17 1011.53 1011.85 1010.32 1009.80 1009.61 1008.55 1008.30 1009.25 1009.98 1010.52 1011.11 1011.88 1011.26 1011.47 1012.17 1012.59 1012.80 1013.03 1013.10 1012.77 1012.04 1010.99 1011.07 1010.38 1009.46 1008.81 1008.62 1008.21 1008.11 1008.65 1009.44 1010.09 1010.94
1019.99 1019.62 1018.98 1017.92 1016.87 1017.18 1017.68 1018.33 1018.44 1018.36 1017.26 1012.57 1010.77 1010.31 1009.38 1009.30 1008.67 1008.37 1008.79 1008.55 1009.37 1010.38 1010.74 1011.08 1011.06 1010.44 1011.67 1012.08 1012.49 1012.46 1012.56 1012.50 1012.34 1011.45 1011.04 1010.80 1009.07 1008.45 1007.73 1007.60 1007.73 1008.15 1008.72 1009.62 1010.18
1020.11 1019.58 1018.96 1018.16 1018.00 1018.42 1017.98 1017.81 1018.04 1017.82 1016.51 1012.30 1010.23 1008.80 1008.45 1008.46 1007.99 1006.84 1007.44 1008.41 1008.94 1009.63 1010.58 1010.72 1010.49 1010.66 1011.37 1011.48 1011.80 1011.89 1011.42 1011.80 1012.17 1012.46 1012.12 1011.52 1010.42 1008.95 1007.84 1007.74 1008.07 1008.69 1009.29 1009.77 1010.31
1020.48 1019.92 1019.32 1018.96 1019.55 1019.20 1018.63 1017.80 1017.30 1017.44 1015.07 1010.73 1009.06 1007.64 1007.87 1007.86 1007.28 1006.62 1007.08 1007.69 1008.31 1009.17 1009.96 1009.15 1009.41 1009.77 1010.31 1010.08 1010.83 1010.72 1010.91 1011.45 1012.00 1012.54 1012.58 1012.33 1012.46 1008.69 1008.49 1008.12 1008.40 1009.23 1009.66 1010.10 1010.57
1020.29 1020.17 1019.62 1019.55 1019.50 1019.00 1018.56 1017.51 1016.95 1017.15 1013.94 1010.45 1008.86 1008.15 1008.38 1008.05 1007.51 1007.02 1007.37 1007.65 1007.91 1008.93 1009.14 1009.03 1008.70 1008.85 1008.98 1008.96 1009.60 1009.92 1011.00 1011.97 1012.76 1013.25 1013.14 1012.25 1012.20 1009.31 1008.63 1007.97 1008.33 1009.23 1010.02 1010.30 1010.73
1020.37 1019.93 1019.58 1019.55 1019.51 1018.74 1018.56 1017.83 1017.77 1016.56 1012.86 1011.29 1010.37 1009.67 1009.33 1008.54 1007.98 1007.65 1008.11 1008.08 1008.04 1009.01 1008.65 1008.87 1008.42 1008.25 1008.22 1008.69 1009.02 1009.90 1011.00 1012.78 1013.76 1014.23 1013.29 1012.36 1012.31 1009.17 1007.81 1007.59 1007.93 1008.61 1009.77 1010.52 1010.87
1020.30 1019.76 1019.66 1019.18 1019.00 1019.05 1019.09 1018.79 1017.86 1015.36 1014.19 1012.69 1011.98 1011.00 1010.49 1009.70 1008.83 1008.28 1008.39 1008.65 1008.62 1008.75 1008.85 1008.90 1008.25 1007.62 1007.19 1007.45 1008.18 1009.35 1010.42 1012.00 1013.13 1013.97 1013.31 1012.54 1011.20 1008.04 1007.08 1007.15 1007.35 1007.93 1009.14 1010.48 1011.01
1020.67 1020.33 1020.19 1019.06 1019.02 1019.39 1019.95 1019.10 1017.05 1015.78 1014.53 1014.19 1013.02 1012.43 1011.65 1011.16 1010.90 1010.29 1009.42 1008.94 1008.66 1008.86 1009.10 1008.87 1008.16 1006.78 1006.20 1006.47 1007.46 1008.74 1010.00 1010.65 1012.08 1013.59 1013.37 1011.63 1009.62 1007.36 1007.02 1007.41 1007.76 1008.39 1009.27 1010.12 1010.89
1021.18 1021.02 1020.87 1019.41 1019.27 1019.82 1020.59 1019.49 1018.11 1016.66 1016.03 1015.60 1015.21 1014.13 1013.57 1013.20 1012.58 1011.79 1010.88 1010.47 1009.97 1009.74 1009.25 1008.82 1008.47 1007.22 1006.36 1006.33 1007.11 1007.63 1008.89 1010.52 1011.93 1012.96 1012.85 1010.95 1009.71 1007.76 1006.79 1007.70 1008.45 1008.93 1009.32 1009.99 1010.77
1021.28 1021.37 1020.31 1019.42 1019.50 1020.73 1021.10 1020.05 1018.81 1017.77 1017.45 1017.33 1016.65 1016.01 1015.35 1015.01 1014.45 1013.52 1012.20 1011.41 1010.84 1010.65 1010.40 1010.51 1009.40 1008.23 1007.18 1006.42 1006.93 1007.84 1008.61 1009.73 1010.83 1011.50 1011.68 1010.79 1008.07 1006.13 1006.19 1006.67 1007.73 1008.42 1009.15 1009.62 1010.37
1021.66 1021.92 1020.47 1020.05 1020.85 1021.24 1021.09 1020.37 1019.37 1018.51 1018.49 1018.64 1017.91 1017.31 1016.57 1016.24 1015.60 1014.89 1013.54 1012.52 1011.68 1011.52 1011.73 1011.48 1011.07 1009.40 1007.73 1007.00 1006.45 1006.97 1007.67 1008.65 1009.93 1010.90 1010.98 1010.22 1007.53 1005.89 1005.84 1005.93 1007.07 1008.39 1009.00 1009.73 1010.26
1022.39 1022.29 1021.27 1021.03 1021.98 1022.09 1021.59 1020.78 1020.26 1019.47 1019.00 1018.66 1018.04 1017.54 1017.38 1017.48 1017.23 1015.22 1014.02 1012.94 1012.26 1012.19 1012.37 1012.42 1011.94 1010.89 1009.06 1008.45 1008.25 1008.36 1008.64 1008.64 1009.15 1009.53 1009.52 1009.32 1006.98 1005.75 1005.66 1006.25 1007.14 1008.34 1009.17 1009.71 1010.34
1023.00 1023.50 1022.83 1022.42 1022.59 1022.60 1022.27 1021.33 1020.46 1019.33 1018.66 1018.32 1017.78 1017.61 1017.70 1017.38 1017.08 1016.15 1015.07 1013.85 1013.12 1012.83 1012.95 1012.94 1012.96 1012.42 1011.65 1011.26 1011.63 1010.97 1010.65 1010.49 1010.06 1009.05 1008.17 1006.94 1006.56 1005.82 1005.85 1006.59 1007.71 1008.38 1009.20 1009.67 1010.04
1023.52 1024.04 1023.50 1023.49 1023.17 1022.91 1022.73 1021.67 1020.64 1019.58 1018.76 1018.13 1017.66 1017.54 1017.51 1017.24 1016.67 1016.09 1015.69 1014.76 1013.79 1013.28 1013.16 1013.42 1013.42 1013.29 1013.02 1013.22 1012.42 1012.64 1012.08 1010.65 1010.37 1009.21 1007.03 1006.65 1005.88 1005.69 1005.57 1006.11 1007.14 1007.86 1008.73 1009.55 1009.86
1023.16 1023.91 1023.82 1023.64 1023.31 1022.95 1022.38 1021.15 1020.52 1019.28 1018.99 1018.12 1017.78 1017.18 1017.23 1017.00 1016.90 1016.75 1016.56 1015.65 1014.42 1013.86 1013.65 1013.66 1013.89 1013.96 1013.69 1013.48 1012.54 1012.86 1012.20 1010.66 1009.83 1008.96 1006.99 1006.08 1004.68 1004.62 1004.63 1005.25 1006.27 1007.03 1007.82 1008.41 1008.90
1022.66 1023.08 1023.23 1022.85 1022.68 1022.50 1021.25 1020.59 1019.62 1019.07 1018.23 1017.81 1017.33 1017.10 1016.77 1016.33 1016.17 1016.28 1016.59 1016.10 1015.46 1014.48 1014.15 1014.48 1014.78 1015.08 1014.83 1013.94 1013.16 1012.12 1009.51 1009.29 1009.07 1007.92 1006.86 1005.18 1004.02 1004.09 1004.22 1004.71 1005.24 1005.97 1006.65 1007.04 1007.66
Wind_Speed
14 14 15 16 16 16 15 15 14 14 14 15 16 17 16 15 14 2 6 10 8 9 3 3 0 1 3 1 2 2 3 3 3 4 4 2 1 1 0 4 1 1 7 4 7
15 16 17 18 19 19 19 19 18 17 15 14 14 16 16 14 2 7 11 8 6 13 5 5 3 3 2 0 0 4 3 6 4 2 3 1 2 2 1 1 1 1 2 3 4
16 17 18 19 19 20 19 20 20 20 19 18 16 15 13 7 4 7 3 14 12 12 5 5 3 2 2 1 2 3 5 4 3 1 2 2 2 1 1 4 6 6 6 5 3
17 18 19 20 21 22 22 20 21 20 18 17 16 15 13 1 4 2 2 11 13 9 6 4 3 2 1 3 3 2 7 5 5 3 2 4 2 2 6 7 4 8 11 7 8
18 19 20 21 22 24 24 23 23 21 19 18 16 11 3 2 11 5 11 11 7 6 7 5 4 4 3 3 1 3 5 5 8 8 6 3 7 7 7 9 4 4 6 8 6
19 20 21 22 23 24 24 24 23 22 20 17 13 6 1 4 5 3 8 8 7 6 5 5 7 8 4 3 4 3 4 7 6 7 4 6 6 4 8 6 7 7 11 9 10
20 21 22 23 24 25 26 24 23 21 19 16 8 3 2 16 3 2 7 5 6 7 6 5 5 4 3 2 2 4 6 8 7 5 8 6 7 11 14 4 5 8 10 9 10
18 20 23 24 26 27 26 24 19 19 14 8 6 2 9 4 0 5 5 2 3 3 1 5 5 5 4 1 6 4 2 4 5 2 5 10 10 10 7 7 11 11 9 9 7
19 21 24 26 27 26 25 23 15 7 6 10 2 3 11 4 2 7 7 6 5 3 2 1 3 3 4 5 5 3 4 4 9 4 2 6 7 12 5 9 10 9 9 8 6
19 21 24 26 29 28 26 13 5 2 3 3 3 3 4 3 3 4 6 6 4 4 0 4 4 3 3 5 7 6 4 5 6 4 1 4 11 12 7 7 11 8 6 7 8
18 20 23 25 29 25 12 5 9 6 7 4 7 8 6 7 4 3 6 6 3 4 7 2 4 11 10 7 4 3 2 5 6 10 4 10 12 12 11 7 9 10 8 8 8
19 20 21 24 24 15 9 8 4 5 14 12 19 18 18 5 6 4 9 8 7 9 6 0 14 9 7 5 5 5 4 7 8 8 5 10 15 14 10 10 11 16 10 10 8
18 20 21 25 14 6 2 7 5 4 6 12 4 7 6 11 12 13 9 7 6 9 9 11 5 8 11 6 7 6 7 5 8 6 4 6 11 7 7 5 3 4 6 10 14
16 17 20 24 8 6 3 7 7 4 4 9 4 8 5 6 5 14 14 7 5 15 7 10 12 6 4 6 9 8 8 11 8 2 5 3 10 6 7 6 1 1 6 10 10
14 16 17 8 2 4 6 10 9 0 5 2 2 0 2 6 5 1 5 3 10 6 8 9 8 12 17 22 8 9 6 8 5 4 1 1 2 8 4 6 6 6 6 7 7
14 16 17 3 3 5 8 11 2 5 9 7 0 1 1 3 5 3 6 3 5 5 4 9 3 7 8 7 13 1 5 6 4 3 4 8 9 7 4 5 1 4 5 7 8
13 14 11 3 5 6 9 4 4 4 7 6 5 6 7 4 2 3 4 10 11 10 17 4 9 3 5 4 3 4 6 2 3 2 7 2 2 12 7 6 7 13 11 8 7
12 11 7 4 5 5 4 3 5 4 6 5 6 8 5 7 4 3 6 6 11 3 1 12 7 16 8 19 7 7 8 7 8 5 5 1 7 9 4 6 8 9 11 7 7
9 4 3 4 4 3 4 3 8 6 3 7 9 4 4 4 3 7 4 3 6 13 9 6 8 5 6 16 14 7 5 5 6 2 3 5 8 11 3 5 4 10 13 12 8
1 2 4 6 2 4 5 6 5 5 7 5 2 3 4 7 7 6 3 2 5 6 5 5 11 5 3 4 4 9 8 3 2 3 5 5 5 11 3 3 4 9 13 11 7
3 4 3 5 4 4 3 7 5 5 11 7 5 7 5 5 5 6 6 2 6 6 7 5 3 3 4 8 8 4 4 3 4 6 6 3 7 7 6 9 13 12 12 13 11
2 2 3 4 4 2 3 5 7 10 13 6 6 9 5 5 6 5 7 5 5 2 5 1 1 4 20 3 3 11 12 14 8 5 4 4 9 3 7 6 8 10 11 9 9
2 2 3 5 1 3 5 12 13 13 9 4 7 5 9 4 8 6 7 4 2 3 2 3 2 3 1 2 6 4 3 5 4 4 9 8 7 2 6 5 6 11 9 9 8
4 3 5 4 1 1 5 10 11 9 12 10 11 11 9 12 10 8 12 6 3 4 5 1 3 3 2 3 3 6 15 12 10 10 9 13 8 4 3 3 5 7 8 10 11
2 4 3 3 4 3 4 9 13 8 8 6 5 11 11 7 12 13 13 13 9 5 3 6 5 6 8 11 7 13 16 14 15 14 16 9 15 8 7 7 9 9 9 10 11
4 3 2 5 3 4 6 6 13 20 11 13 13 16 14 14 14 9 13 10 9 3 6 3 4 4 6 8 10 12 20 14 20 21 18 14 15 4 7 5 8 12 14 16 14
1 1 3 5 3 5 10 12 13 10 10 13 18 15 13 16 15 10 11 15 20 8 7 5 4 2 4 4 11 12 24 15 19 15 10 17 17 7 6 6 8 12 16 19 17
Wind_Direction
8 3 1 356 352 346 343 340 338 337 334 332 331 331 331 327 319 163 233 222 188 183 148 119 73 315 58 63 14 86 70 219 234 191 246 338 123 263 69 123 24 75 161 239 159
5 0 355 350 346 342 338 335 330 328 327 327 327 329 331 330 286 244 234 206 189 155 140 158 177 120 31 151 21 108 131 224 221 245 235 349 133 243 85 151 188 23 335 104 113
6 2 357 351 346 341 336 332 329 328 326 324 327 326 326 330 305 248 216 197 194 161 143 148 96 87 163 117 217 186 200 218 252 236 216 248 301 171 156 244 221 186 197 168 151
5 360 354 348 343 339 333 329 325 322 319 316 321 326 322 301 290 233 251 179 171 143 127 139 105 122 160 239 200 242 246 230 268 277 278 236 180 240 192 228 231 213 186 167 174
0 356 351 346 341 335 331 326 320 315 312 311 314 327 341 324 253 277 150 149 121 137 170 148 144 153 194 226 254 212 265 263 253 268 258 278 234 218 232 234 199 167 171 201 201
356 351 348 343 336 331 327 321 316 312 308 302 303 313 198 260 249 177 141 132 152 147 176 145 185 197 196 228 176 262 249 267 274 242 237 195 248 145 257 238 197 193 204 207 201
353 349 345 338 332 329 325 316 310 303 297 291 274 212 231 239 79 148 156 194 166 163 161 197 176 169 154 275 256 278 309 314 243 224 226 170 280 228 241 165 214 211 209 212 220
350 345 341 335 332 330 322 312 308 302 296 261 187 183 245 250 330 173 168 139 149 190 199 176 162 173 165 225 11 356 37 331 284 149 246 135 265 268 241 170 231 223 227 221 213
348 345 341 336 333 329 321 315 321 340 98 132 129 166 265 312 194 199 156 185 152 186 256 290 136 157 88 89 358 360 246 228 311 222 117 182 258 266 228 192 240 245 232 215 168
348 345 339 337 338 332 323 318 306 104 128 206 264 329 269 248 217 182 173 142 160 149 342 151 58 144 75 114 224 211 224 248 240 302 100 269 262 273 279 213 219 239 245 187 180
347 345 340 339 341 336 343 14 13 354 15 240 275 278 293 296 295 195 152 123 108 117 175 200 164 216 198 194 181 131 227 280 271 275 303 257 257 260 267 230 246 241 224 192 193
349 346 341 335 337 348 11 68 60 232 302 268 248 248 261 354 314 304 131 150 161 204 134 50 233 224 191 193 225 255 271 274 282 267 171 275 265 252 233 238 216 228 207 184 158
348 347 344 332 337 30 53 91 279 290 251 287 219 238 232 177 218 230 176 152 167 180 195 208 228 213 194 196 204 225 216 224 235 313 283 313 285 255 274 253 253 279 194 176 170
351 351 347 334 37 331 32 335 331 229 341 281 253 259 179 160 248 212 178 154 191 204 151 232 224 220 170 220 192 248 201 234 258 254 252 30 290 253 262 250 254 282 174 161 150
353 354 353 28 259 351 285 321 319 110 347 282 241 254 158 168 304 304 159 172 195 162 171 218 177 217 240 245 168 240 191 206 227 213 353 283 295 270 318 278 229 210 183 156 155
359 351 348 22 319 246 306 312 88 46 253 311 139 241 95 271 301 52 160 124 166 188 251 232 215 170 201 233 194 231 114 49 52 76 277 214 181 283 242 228 165 158 205 174 167
357 344 333 319 273 339 333 350 50 181 331 334 346 359 330 267 266 190 175 181 190 199 228 208 223 215 199 268 124 129 108 311 333 4 229 174 181 254 282 256 205 184 191 190 174
347 333 296 258 289 2 347 48 186 226 244 342 356 308 263 8 281 269 160 193 232 219 156 213 262 203 208 209 181 182 172 160 199 197 245 96 232 252 220 290 246 184 160 157 179
344 330 295 275 300 102 53 171 213 210 311 358 331 296 283 357 4 343 227 202 204 201 204 195 246 264 206 209 178 176 192 192 101 22 43 236 289 294 58 17 105 144 157 169 178
10 333 299 327 50 65 77 242 273 359 8 9 293 308 305 337 347 13 303 330 337 33 356 256 258 225 177 110 90 173 163 109 12 175 231 272 256 243 272 211 173 171 176 168 165
62 28 272 352 64 32 221 231 296 324 37 0 337 323 311 343 335 320 305 338 7 352 43 11 223 292 197 201 174 130 157 77 147 151 183 279 253 215 243 186 199 189 184 174 172
96 29 293 36 54 233 235 308 320 300 327 303 311 276 255 323 280 258 239 281 3 39 349 48 300 238 236 263 206 210 197 190 202 227 236 163 269 358 287 225 158 179 178 174 169
70 287 344 73 184 245 292 275 281 278 265 247 273 301 308 314 318 270 270 327 356 88 154 335 352 315 144 27 15 27 299 192 124 100 194 199 256 354 26 77 144 160 175 172 163
67 351 322 35 79 269 285 278 273 276 264 237 254 257 272 273 243 262 275 278 304 153 188 321 164 286 305 33 355 316 321 320 292 221 225 221 251 277 43 138 153 168 182 179 177
79 240 192 280 301 254 296 285 292 295 256 251 282 247 252 264 288 273 260 270 277 269 240 165 228 203 223 250 298 316 306 309 292 284 231 216 239 251 269 207 201 181 167 181 188
131 176 243 258 252 230 253 259 278 277 238 267 283 274 272 273 266 295 310 289 242 270 210 195 256 259 247 234 253 257 275 281 290 272 276 248 247 202 260 122 159 182 183 193 196
181 274 138 242 210 261 263 260 268 276 251 255 262 271 272 260 270 254 252 266 267 240 199 151 147 118 302 243 252 262 248 264 265 251 276 238 249 210 230 201 203 193 194 199 195